Voltar ao catálogo

STARLINK-35892

AtivoComunicaçõesVLEO
NORAD 67115·PAYLOAD·🇺🇸 United States

Lançado Dec 15, 2025 de Cape Canaveral Space Force Station

Loading…

Próximas Passagens (próximas 24 horas)

TLE

AtualizadoSource: CelesTrak SupGP

Época: Sep 14, 2026, 14:32 UTC

1 67115C 25299P   26257.60604167  .00016261  00000+0  58926-3 0  2574
2 67115  42.9998 181.8617 0001500 263.6635   8.5444 15.27555099    16

Acompanhe STARLINK-35892 em tempo real com AllMySat

Download on the App Store